Weather Service Report


598 
ASUS41 KBTV 261910
RWRBTV
VERMONT REGIONAL WEATHER ROUNDUP
NATIONAL WEATHER SERVICE BURLINGTON VT
300 PM EDT THU MAR 26 2015

NOTE: "FAIR" INDICATES FEW OR NO CLOUDS BELOW 12,000 FEET WITH NO 
SIGNIFICANT WEATHER AND/OR OBSTRUCTIONS TO VISIBILITY.

* THESE REPORTS ARE NOT UNDER NWS QUALITY CONTROL AND/OR DO NOT
  REPORT WEATHER SUCH AS PRECIPITATION AND FOG.

VTZ001>019-262000-
_____VERMONT_____

  
CITY           SKY/WX    TMP DP  RH WIND       PRES   REMARKS
BURLINGTON     NOT AVBL                                               
MONTPELIER     LGT RAIN  41  37  86 CALM      29.74F FOG              
MORRISVILLE    LGT RAIN  42  38  85 N5        29.74F FOG              
ST. JOHNSBURY*   N/A     44  40  85 MISG      29.70F                  
LYNDONVILLE*   LGT RAIN  41  34  75 W6        29.72F                  
MIDDLEBURY*    RAIN      42  42 100 CALM      29.73S                  
RUTLAND*       CLOUDY    41  39  93 CALM      29.74S                  
SPRINGFIELD    CLOUDY    42  41  96 NW3       29.72F FOG              
HIGHGATE*      LGT RAIN  38  36  92 CALM      29.76F                  
NEWPORT*       LGT RAIN  38  35  91 W3        29.73F                  
BENNINGTON     LGT RAIN  41  39  93 SW6       29.72F FOG              
SUTTON*          N/A     39 N/A N/A MISG        N/A                   

_____LAKE CHAMPLAIN_____

  
CITY           SKY/WX    TMP DP  RH WIND       PRES   REMARKS

$$

NYZ007-026>031-035-052-083-262000-
_____NORTHERN NEW YORK_____

  
CITY           SKY/WX    TMP DP  RH WIND       PRES   REMARKS
PLATTSBURGH    LGT RAIN  40  38  93 CALM      29.75F FOG              
SARANAC LAKE   LGT SNOW  33  32  96 CALM      29.68F VSB 3/4          
MASSENA        LGT SNOW  35  35 100 SW7       29.77F FOG              
OGDENSBURG*    MIX PCPN  36  34  93 CALM      29.76F                  
POTSDAM*       LGT SNOW  34  34 100 CALM      29.75F                  
WATERTOWN      SNOW      35  32  88 CALM      29.76F VSB 1/4          
FT DRUM        SNOW      33  33 100 CALM      29.74F VSB 1/4          
ALBANY         LGT RAIN  42  39  89 NE6       29.74F VSB 3/4          
GLENS FALLS    LGT RAIN  39  37  92 CALM      29.74  FOG              

$$
NHZ002-005-011-262000-
_____NEW HAMPSHIRE_____

  
CITY           SKY/WX    TMP DP  RH WIND       PRES   REMARKS
LEBANON        LGT RAIN  41  40  96 CALM      29.71F FOG              
KEENE          CLOUDY    43  41  93 SW3       29.75F                  
MT WASHINGTON  HAIL      25  25 100 NW31        N/A  VSB 1/16WCI   8  
PLYMOUTH       LGT RAIN  43  43 100 CALM      29.73F                  
WHITEFIELD     LGT RAIN  43  38  82 SW3       29.71F                  

$$

_____REGIONAL QUEBEC LOCATIONS_____

  
CITY           SKY/WX    TMP DP  RH WIND       PRES   REMARKS
MONTREAL       LGT RAIN  37  32  81 SW15      29.75F                  
QUEBEC CITY    MOCLDY    39  30  70 W9        29.69F                  
SHERBROOKE     LGT RAIN  37  34  87 W8        29.73S FOG              

_____REGIONAL ONTARIO LOCATIONS_____

  
CITY           SKY/WX    TMP DP  RH WIND       PRES   REMARKS
OTTAWA         CLOUDY    39  34  81 S12       29.73F                  

______KEY______
VSB  - VISIBILITY IN MILES
WCI  - WIND CHILL INDEX
HX   - HEAT INDEX
$$
NNNN

Return to Home page


Western Regional Climate Center, wrcc@dri.edu